(131730) = 1999 FG55 = 2001 YE92

Discovered at Palomar on 2001-12-18 by NEAT.

Orbit

Orbit type: Main Belt

Note: WebGL enabled browser required.

epoch2024-03-31.0
epoch JD2460400.5
perihelion date2021-10-09.55398
perihelion JD2459497.05398
argument of perihelion (°)77.31351
ascending node (°)312.47453
inclination (°)4.40934
eccentricity0.1510586
perihelion distance (AU)1.9207301
Tisserand w.r.t. Jupiter3.6
ΔV w.r.t. Earth (km/sec)8.7
semimajor axis (AU)2.2625001
mean anomaly (°)261.65145
mean daily motion (°/day)0.28961490
aphelion distance (AU)2.604
period (years)3.4
P-vector [x]0.86573947
P-vector [y]0.42417434
P-vector [z]0.26565260
Q-vector [x]-0.49727214
Q-vector [y]0.78913550
Q-vector [z]0.36053514
absolute magnitude15.74
phase slope0.15
uncertainty0
referenceMPEC 2024-C181
observations used1424
oppositions16
arc length (days)8848
first opposition used1999
last opposition used2023
residual rms (arc-secs)0.64
perturbers coarse indicatorM-v
perturbers precise indicator003Ek
first observation date used1999-03-20.0
last observation date used2023-06-10.0
computer nameMPCLINUX
JD of orbit computation2456966.742856
perihelion JD uncertainty (days)4.3444E-05
argument of perihelion uncertainty (°)4.3782E-05
ascending node uncertainty (°)4.1344E-05
inclination uncertainty (°)3.8478E-06
eccentricity uncertainty 3.5578E-08
perihelion distance uncertainty (AU)8.3686E-08
Minimum Orbit Intersection Distances (in AU)
for orbit epoch: 2460400.5, reference: E2024-CI1
Mercury1.59054
Venus1.2045
Earth0.93156
Mars0.47069
Jupiter2.8415
Saturn6.86398
Uranus15.9228
Neptune27.9123

Observations

1505 total observations over interval: 1999 03 20.20655 – 2023 06 10.219587
These data are available for download (format description).

Date (UT) J2000 RA J2000 Dec Magn Location Ref
1999 03 20.20655 11 20 16.17 -00 57 47.2 18.9   704 – Lincoln Laboratory ETS, New Mexico MPS 4554
1999 03 20.22457 11 20 14.97 -00 57 42.5 19.5   704 – Lincoln Laboratory ETS, New Mexico MPS 4554
1999 03 20.24260 11 20 13.98 -00 57 34.8 20.1   704 – Lincoln Laboratory ETS, New Mexico MPS 4554
1999 03 20.26069 11 20 12.88 -00 57 28.7 19.3   704 – Lincoln Laboratory ETS, New Mexico MPS 4554
1999 03 20.271920 11 20 12.250 -00 57 24.80 19.03 V 645 – Apache Point-Sloan Digital Sky Survey MPS 80024
1999 03 20.275392 11 20 12.037 -00 57 23.75 19.93   645 – Apache Point-Sloan Digital Sky Survey MPS 80024
1999 03 23.25423 11 17 19.31 -00 41 43.3 19.4   704 – Lincoln Laboratory ETS, New Mexico MPS 4554
1999 03 23.26887 11 17 18.40 -00 41 38.5 19.4   704 – Lincoln Laboratory ETS, New Mexico MPS 4554
1999 03 23.28357 11 17 17.51 -00 41 31.7 19.0   704 – Lincoln Laboratory ETS, New Mexico MPS 4554
1999 03 23.28624 11 17 17.47 -00 41 30.6 18.5 R 699 – Lowell Observatory-LONEOS MPS 58957
1999 03 23.29825 11 17 16.61 -00 41 27.2 19.0   704 – Lincoln Laboratory ETS, New Mexico MPS 4554
1999 03 23.31171 11 17 15.91 -00 41 22.1   699 – Lowell Observatory-LONEOS MPS 58957
1999 03 23.31292 11 17 15.66 -00 41 24.5 19.6   704 – Lincoln Laboratory ETS, New Mexico MPS 4554
1999 03 23.33721 11 17 14.45 -00 41 14.4   699 – Lowell Observatory-LONEOS MPS 58957
2001 11 12.44374 08 40 37.46 +21 32 15.2 18.7   704 – Lincoln Laboratory ETS, New Mexico MPS 47147
2001 11 12.45780 08 40 38.12 +21 32 12.0 18.8   704 – Lincoln Laboratory ETS, New Mexico MPS 47147
2001 11 12.47190 08 40 38.79 +21 32 09.7 19.0   704 – Lincoln Laboratory ETS, New Mexico MPS 47147
2001 11 12.50009 08 40 40.17 +21 32 02.9 19.0   704 – Lincoln Laboratory ETS, New Mexico MPS 47147
2001 11 24.43310 08 48 29.51 +20 56 25.8 19.1   704 – Lincoln Laboratory ETS, New Mexico MPS 49827
2001 11 24.44758 08 48 29.83 +20 56 22.2 19.7   704 – Lincoln Laboratory ETS, New Mexico MPS 49827
2001 11 24.46208 08 48 30.25 +20 56 20.0 20.0   704 – Lincoln Laboratory ETS, New Mexico MPS 49827
2001 11 24.47654 08 48 30.48 +20 56 19.3 19.6   704 – Lincoln Laboratory ETS, New Mexico MPS 49827
2001 11 24.49101 08 48 31.00 +20 56 17.6 19.7   704 – Lincoln Laboratory ETS, New Mexico MPS 49827
2001 12 18.45959 08 49 12.91 +20 31 01.7 19.3   704 – Lincoln Laboratory ETS, New Mexico MPS 47147
2001 12 18.47607 08 49 12.49 +20 31 02.5 19.5   704 – Lincoln Laboratory ETS, New Mexico MPS 47147
2001 12 18.49304 08 49 12.00 +20 31 01.8 19.6   704 – Lincoln Laboratory ETS, New Mexico MPS 47147
2001 12 18.49934 08 49 12.01 +20 31 05.9 18.3   644 – Palomar Mountain/NEAT MPS 45529
2001 12 18.50848 08 49 11.60 +20 31 02.5 19.4   704 – Lincoln Laboratory ETS, New Mexico MPS 47147
2001 12 18.50976 08 49 11.64 +20 31 04.0 19.3   644 – Palomar Mountain/NEAT MPS 45529
2001 12 18.52018 08 49 11.35 +20 31 04.0 19.3   644 – Palomar Mountain/NEAT MPS 45529
2001 12 18.52370 08 49 11.17 +20 31 02.5 19.3   704 – Lincoln Laboratory ETS, New Mexico MPS 47147
2001 12 23.44850 08 46 38.93 +20 33 53.1 19.6   608 – Haleakala-AMOS MPS 45529
2001 12 23.45883 08 46 38.52 +20 33 53.9 19.7   608 – Haleakala-AMOS MPS 45529
2001 12 23.46921 08 46 38.11 +20 33 54.4 19.5   608 – Haleakala-AMOS MPS 45529
2002 01 07.34447 08 34 02.11 +20 53 27.9 19.4   644 – Palomar Mountain/NEAT MPS 49827
2002 01 07.37833 08 33 59.91 +20 53 31.9 19.3   644 – Palomar Mountain/NEAT MPS 49827
2002 01 07.41234 08 33 57.65 +20 53 34.9 19.0   644 – Palomar Mountain/NEAT MPS 49827
2002 01 09.33427 08 31 53.78 +20 56 46.8 19.2   704 – Lincoln Laboratory ETS, New Mexico MPS 49827
2002 01 09.34943 08 31 52.71 +20 56 47.7 18.8   704 – Lincoln Laboratory ETS, New Mexico MPS 49827
2002 01 09.36459 08 31 51.66 +20 56 49.4 19.0   704 – Lincoln Laboratory ETS, New Mexico MPS 49827
2002 01 09.37977 08 31 50.64 +20 56 51.0 18.8   704 – Lincoln Laboratory ETS, New Mexico MPS 49827
2002 01 09.39505 08 31 49.57 +20 56 52.1 19.2   704 – Lincoln Laboratory ETS, New Mexico MPS 49827
2002 01 11.26493 08 29 45.10 +21 00 00.2 17.9 R 699 – Lowell Observatory-LONEOS MPS 49827
2002 01 11.29343 08 29 43.12 +21 00 03.1   699 – Lowell Observatory-LONEOS MPS 49827
2002 01 11.32171 08 29 41.12 +21 00 06.0   699 – Lowell Observatory-LONEOS MPS 49827
2002 01 11.36639 08 29 37.94 +21 00 11.2   699 – Lowell Observatory-LONEOS MPS 49827
2002 01 14.31266 08 26 14.46 +21 05 03.8 18.3   704 – Lincoln Laboratory ETS, New Mexico MPS 49827
2002 01 14.32776 08 26 13.35 +21 05 05.4 18.5   704 – Lincoln Laboratory ETS, New Mexico MPS 49827
2002 01 14.34320 08 26 12.22 +21 05 07.0 18.4   704 – Lincoln Laboratory ETS, New Mexico MPS 49827
2002 01 14.36020 08 26 10.98 +21 05 08.9 18.4   704 – Lincoln Laboratory ETS, New Mexico MPS 49827
2002 01 14.37538 08 26 09.86 +21 05 10.5 18.4   704 – Lincoln Laboratory ETS, New Mexico MPS 49827
2002 01 21.23375 08 17 59.14 +21 15 36.2 18.2   704 – Lincoln Laboratory ETS, New Mexico MPS 49827
2002 01 21.24852 08 17 58.01 +21 15 36.6 18.6   704 – Lincoln Laboratory ETS, New Mexico MPS 49827
2002 01 21.26335 08 17 56.91 +21 15 38.3 18.3   704 – Lincoln Laboratory ETS, New Mexico MPS 49827
2002 01 21.27825 08 17 55.80 +21 15 39.6 18.7   704 – Lincoln Laboratory ETS, New Mexico MPS 49827
2002 01 21.29306 08 17 54.67 +21 15 40.2 19.0   704 – Lincoln Laboratory ETS, New Mexico MPS 49827
2002 01 26.28527 08 11 58.15 +21 21 46.4 18.2   644 – Palomar Mountain/NEAT MPS 47147
2002 01 26.28641 08 11 58.02 +21 21 47.6 17.9   644 – Palomar Mountain/NEAT MPS 47147
2002 01 26.30627 08 11 56.60 +21 21 47.7 17.9   644 – Palomar Mountain/NEAT MPS 47147
2002 01 26.30745 08 11 56.50 +21 21 49.1 17.7   644 – Palomar Mountain/NEAT MPS 47147
2002 01 26.32730 08 11 55.06 +21 21 49.0 18.0   644 – Palomar Mountain/NEAT MPS 47147
2002 01 26.32845 08 11 54.96 +21 21 50.3 17.7   644 – Palomar Mountain/NEAT MPS 47147
2002 02 07.23854 07 59 06.60 +21 28 57.2 17.8   704 – Lincoln Laboratory ETS, New Mexico MPS 52439
2002 02 07.25305 07 59 05.76 +21 28 57.5 18.2   704 – Lincoln Laboratory ETS, New Mexico MPS 52439
2002 02 07.26733 07 59 04.92 +21 28 57.7 18.5   704 – Lincoln Laboratory ETS, New Mexico MPS 52439
2002 02 07.28150 07 59 04.06 +21 28 58.2 18.2   704 – Lincoln Laboratory ETS, New Mexico MPS 52439
2002 02 07.29822 07 59 03.08 +21 28 58.4 18.3   704 – Lincoln Laboratory ETS, New Mexico MPS 52439
2002 02 10.16725 07 56 27.52 +21 28 57.6 18.3   704 – Lincoln Laboratory ETS, New Mexico MPS 52439
2002 02 10.18155 07 56 26.76 +21 28 57.2 18.6   704 – Lincoln Laboratory ETS, New Mexico MPS 52439
2002 02 10.19565 07 56 26.02 +21 28 57.3 18.6   704 – Lincoln Laboratory ETS, New Mexico MPS 52439
2002 02 10.20994 07 56 25.23 +21 28 57.0 18.4   704 – Lincoln Laboratory ETS, New Mexico MPS 52439
2002 02 10.22404 07 56 24.49 +21 28 56.6 18.7   704 – Lincoln Laboratory ETS, New Mexico MPS 52439
2002 02 12.16571 07 54 47.55 +21 28 33.5 18.7   704 – Lincoln Laboratory ETS, New Mexico MPS 52439
2002 02 12.17976 07 54 46.86 +21 28 33.1 18.9   704 – Lincoln Laboratory ETS, New Mexico MPS 52439
2002 02 12.19382 07 54 46.15 +21 28 33.0 18.9   704 – Lincoln Laboratory ETS, New Mexico MPS 52439
2002 02 12.20788 07 54 45.42 +21 28 33.1 19.2   704 – Lincoln Laboratory ETS, New Mexico MPS 52439
2002 02 20.17187 07 49 25.23 +21 23 50.7 18.8   704 – Lincoln Laboratory ETS, New Mexico MPS 52439
2002 02 20.18550 07 49 24.70 +21 23 50.1 19.1   704 – Lincoln Laboratory ETS, New Mexico MPS 52439
2002 02 20.19915 07 49 24.27 +21 23 49.3 19.2   704 – Lincoln Laboratory ETS, New Mexico MPS 52439
2002 02 20.21289 07 49 23.78 +21 23 48.6 18.8   704 – Lincoln Laboratory ETS, New Mexico MPS 52439
2002 02 20.22654 07 49 23.31 +21 23 48.0 19.1   704 – Lincoln Laboratory ETS, New Mexico MPS 52439
2002 03 04.12400 07 45 34.92 +21 08 23.4 19.3   644 – Palomar Mountain/NEAT MPS 52439
2002 03 04.14513 07 45 34.77 +21 08 21.4 19.4   644 – Palomar Mountain/NEAT MPS 52439
2002 03 04.16757 07 45 34.57 +21 08 19.4 19.0   644 – Palomar Mountain/NEAT MPS 52439
2003 05 08.27000 15 31 11.90 -26 22 38.4 19.1 C 704 – Lincoln Laboratory ETS, New Mexico MPS 291261
2003 05 08.29449 15 31 10.28 -26 22 35.1 19.5 C 704 – Lincoln Laboratory ETS, New Mexico MPS 291261
